Home   Weather   São Paulo   Past weeks

Flag for Brazil Past Weather in São Paulo, São Paulo, Brazil — Yesterday and Last 2 Weeks

Now
81 °F

Passing clouds.


Feels Like: 81 °F
Forecast: N/A
Wind: 10 mph from North

Location: Sao Paulo Airport

Current Time: Apr 25, 2017 at 5:56:40 pm

Latest Report: Apr 25, 2017 at 5:00 pm


Visibility: N/A

Pressure: 29.95 "Hg (27.45 "Hg at 765m altitude)

Humidity: 51%

Dew Point: 61 °F

Location of São PauloLocation

Past Weather in São Paulo — Graph

°F

São Paulo Temperature Yesterday

Maximum temperature yesterday: 79 °F (at 3:00 pm)
Minimum temperature yesterday: 61 °F (at 6:00 am)
Average temperature yesterday: 68 °F

High & Low Weather Summary for the Past Weeks

 TemperatureHumidityPressure
High86 °F (Apr 11, 2:00 pm)94% (Apr 11, 12:00 pm)30.24 "Hg (Apr 11, 12:00 pm)
Low59 °F (Apr 19, 1:00 am)34% (Apr 18, 6:00 am)29.95 "Hg (Apr 21, 1:00 pm)
Average67 °F78%30.11 "Hg
* Reported Apr 10 5:00 pm — Apr 25 5:00 pm, São Paulo, Weather by CustomWeather, © 2017

Note: Actual official high and low records may vary slightly from our data, if they occured in-between our weather recording intervals... More about our weather records

Advertising

São Paulo Weather History for the Previous 24 Hours

Scroll right to see more
 ConditionsComfort  
Time TempWeatherWind HumidityBarometerVisibility
5:00 pm
Tue, Apr 25
81 °FPassing clouds.10 mph51%29.95 "HgN/A
4:00 pm82 °FScattered clouds.13 mph45%29.95 "HgN/A
3:00 pm82 °FScattered clouds.13 mph45%29.95 "HgN/A
2:00 pm81 °FScattered clouds.13 mph51%29.98 "HgN/A
1:00 pm81 °FScattered clouds.14 mph51%29.98 "HgN/A
12:00 pm79 °FPassing clouds.10 mph54%30.01 "HgN/A
11:00 am75 °FPassing clouds.7 mph61%30.04 "HgN/A
10:00 am72 °FSunny.9 mph69%30.07 "Hg10 mi
9:00 am68 °FSunny.9 mph73%30.07 "Hg10 mi
8:00 am66 °FPassing clouds.10 mph78%30.04 "HgN/A
7:00 am64 °FBroken clouds.7 mph83%30.04 "HgN/A
6:00 am64 °FPartly cloudy.8 mph83%30.04 "HgN/A
4:00 am64 °FMostly cloudy.9 mph88%30.04 "HgN/A
2:00 am66 °FMostly cloudy.7 mph83%30.07 "HgN/A
1:00 am66 °FOvercast.5 mph83%30.09 "HgN/A
12:00 am66 °FOvercast.7 mph83%30.12 "HgN/A
11:03 pm
Mon, Apr 24
66 °FOvercast.7 mph83%30.12 "HgN/A
11:00 pm64 °FMostly cloudy.7 mph88%30.15 "HgN/A
10:00 pm64 °FLow clouds.7 mph88%30.15 "HgN/A
9:00 pm66 °FLow clouds.8 mph83%30.15 "HgN/A
8:00 pm66 °FLow clouds.10 mph83%30.12 "HgN/A
7:00 pm66 °FLow clouds.10 mph83%30.12 "HgN/A
6:00 pm66 °FPassing clouds.13 mph83%30.09 "HgN/A
Weather by CustomWeather, © 2017

See weather overviewHow to use our weather pages